sat.trackr.live / text

‹ back to catalog

STARLINK-33765

NORAD 63473 · 2025-070P

PAYLOAD ACTIVE UNKNOWN

§ Identity

Operator
Country
US
Launch date
2025-04-06
Launch site
AFETR
Launch vehicle
Mass (kg)
RCS (m²)

Purposes: comms

External: N2YO · Heavens-Above · Gunter

§ Orbital elements

Epoch: 2026-09-20T15:53:30.643872Z

Period
94.27 min
Inclination
43.0025°
Eccentricity
0.0001666
Mean motion
15.27597445 rev/d
Perigee alt
481.9 km
Apogee alt
484.1 km
Semi-major
6,861.1 km
B*
4.3626e-4
RAAN
238.8118°
Arg perigee
283.6313°
Mean anomaly
76.4353°
Rev number
8,279

§ Raw data

STARLINK-337651 63473U 25070P   26263.66216023  .00011768  00000+0  43626-3 0  99982 63473  43.0025 238.8118 0001666 283.6313  76.4353 15.27597445 82798

JSON: /api/v1/satellites/63473 · /tle

For live sub-satellite position, see the globe view (requires WebGL).

§ Visibility from observer

Set your observer location to see the next 7 days of passes ≥ 10°. The values pass through the URL so the page stays shareable.

No JS? Fill the form by hand. The geolocation button needs JavaScript.